Tracking 28799 objects as of 18-Apr-2024
HD Live streaming from Space Station
objects crossing your sky now

CZ-4 DEB

Track CZ-4 DEB now!
10-day predictions


NORAD ID: 36304
Int'l Code: 1999-057SV
Perigee: 606.6 km
Apogee: 665.3 km
Inclination: 98.7 °
Period: 97.3 minutes
Semi major axis: 7006 km
RCS: 0.01 m2 (small)
Launch date: October 14, 1999
Source: People's Republic of China (PRC)
Launch site: Taiyaun Space Center, China (TSC)

Note: This is SATELLITE DEBRIS
Your satellite tracking list
Your tracking list is empty




NASA's NSSDC Master Catalog

Two Line Element Set (TLE):
1 36304U 99057SV  24107.25631311  .00035253  00000-0  45596-2 0  9991
2 36304  98.7431 266.4813 0041904 282.8549  76.7981 14.80165371 61377
Source of the keplerian elements: AFSPC